Location: Caltech
(34.1382°N, 118.1253°W)
Time: 06:24:26
(UTC-07:00)

BREEZE M DEB (TANK) - Visible Passes

Search period start: 23 May 2015 00:00
Search period end: 02 June 2015 00:00
Orbit: 317 x 13789 km, 49.6° (Epoch: 20 May)

Date Brightness Start Highest point End Pass type
(mag) Time Alt. Az. Time Alt. Az. Time Alt. Az.
23 May 8.5 02:48:11 10° WNW 04:59:16 78° NNE 05:25:13 10° ESE visible
23 May 8.4 19:10:53 10° S 19:48:32 50° ESE 21:43:43 10° NE visible
23 May 9.3 23:43:50 10° WSW 01:33:58 68° N 02:44:27 10° E visible
24 May 7.7 05:25:09 10° NW 07:02:05 67° WSW 07:18:19 10° SSE visible
24 May 8.7 21:01:39 10° SSW 21:55:14 84° SE 23:55:07 10° ENE visible
25 May 8.6 01:57:22 10° W 04:11:30 73° NNE 04:43:09 10° ESE visible
25 May 8.4 18:31:00 10° SSE 19:04:54 42° ESE 20:54:45 10° NE visible
25 May 9.2 22:59:24 10° WSW 00:34:19 71° NNW 02:00:36 10° ENE visible
26 May 7.9 04:29:54 10° WNW 06:19:03 77° SW 06:37:14 10° SSE visible
26 May 8.6 20:19:52 10° SSW 21:06:23 76° SE 23:08:52 10° NE visible
27 May 8.8 01:08:16 10° W 03:21:23 70° NNE 04:00:40 10° ESE visible
27 May 9.0 22:15:37 10° SW 23:35:07 75° NNW 01:16:09 10° ENE visible
28 May 8.0 03:35:18 10° WNW 05:34:58 86° SW 05:55:46 10° SE visible
28 May 8.5 19:38:21 10° SSW 20:19:23 68° ESE 22:21:45 10° NE visible
29 May 8.9 00:20:38 10° W 02:28:15 68° N 03:17:43 10° E visible
29 May 8.9 21:32:20 10° SW 22:38:21 81° NW 00:31:00 10° ENE visible
30 May 8.2 02:41:54 10° WNW 04:49:35 87° NE 05:13:57 10° SE visible
30 May 8.4 18:57:07 10° S 19:33:48 59° ESE 21:33:38 10° NE visible
30 May 9.0 23:34:13 10° W 01:31:33 67° N 02:34:15 10° E visible
31 May 7.6 05:16:49 10° NW 06:48:46 55° WSW 07:05:39 10° S visible
31 May 8.8 20:49:27 10° SW 21:44:41 88° NW 23:45:07 10° ENE visible
01 Jun 8.4 01:50:03 10° WNW 04:02:34 80° NNE 04:31:44 10° ESE visible
01 Jun 8.3 18:16:12 10° S 18:49:19 50° ESE 20:44:22 10° NE visible
